Météo par heure à Abay (Tyulkubasskiy rayon)

Ce jour, 25 Novembre, Mercredi

Heure Température Précipitation Vent Pression Humidité
00:00 -2°C° 0 mm 1 m/s 711 mmHg 48%
01:00 -2°C° 0 mm 1 m/s 711 mmHg 49%
02:00 -2°C° 0 mm 1 m/s 711 mmHg 49%
03:00 -2°C° 0 mm 1 m/s 711 mmHg 49%
04:00 -2°C° 0 mm 1 m/s 711 mmHg 48%
05:00 -2°C° 0 mm 1 m/s 711 mmHg 49%
06:00 -2°C° 0 mm 1 m/s 711 mmHg 50%
07:00 -2°C° 0 mm 1 m/s 711 mmHg 50%
08:00 -2°C° 0 mm 1 m/s 711 mmHg 51%
09:00 -1°C° 0 mm 1 m/s 712 mmHg 54%
10:00 0°C° 0 mm 0 m/s 712 mmHg 58%
11:00 +1°C° 0 mm 0 m/s 712 mmHg 60%
12:00 +1°C° 0 mm 0 m/s 712 mmHg 62%
13:00 +2°C° 0 mm 0 m/s 712 mmHg 64%
14:00 +2°C° 0 mm 0 m/s 712 mmHg 66%
15:00 +1°C° 0 mm 0 m/s 712 mmHg 66%
16:00 +1°C° 0 mm 1 m/s 712 mmHg 65%
17:00 -1°C° 0 mm 0 m/s 712 mmHg 65%
18:00 0°C° 0.1 mm 1 m/s 712 mmHg 73%
19:00 0°C° 0.1 mm 1 m/s 713 mmHg 81%
20:00 0°C° 0.1 mm 1 m/s 713 mmHg 89%
21:00 0°C° 0 mm 1 m/s 713 mmHg 89%
22:00 -1°C° 0 mm 1 m/s 713 mmHg 89%
23:00 -1°C° 0 mm 1 m/s 713 mmHg 90%

Demain, 26 Novembre, Jeudi

Heure Température Précipitation Vent Pression Humidité
00:00 -1°C° 0 mm 1 m/s 713 mmHg 88%
01:00 -1°C° 0 mm 1 m/s 713 mmHg 87%
02:00 -1°C° 0 mm 1 m/s 713 mmHg 86%
03:00 -1°C° 0 mm 1 m/s 713 mmHg 83%
04:00 -2°C° 0 mm 1 m/s 713 mmHg 81%
05:00 -4°C° 0 mm 2 m/s 713 mmHg 78%
06:00 -4°C° 0 mm 2 m/s 713 mmHg 75%
07:00 -3°C° 0 mm 2 m/s 713 mmHg 71%
08:00 -3°C° 0 mm 2 m/s 713 mmHg 68%
09:00 -2°C° 0 mm 2 m/s 713 mmHg 67%
10:00 +1°C° 0 mm 2 m/s 713 mmHg 66%
11:00 +3°C° 0 mm 1 m/s 713 mmHg 66%
12:00 +4°C° 0 mm 1 m/s 713 mmHg 66%
13:00 +3°C° 0 mm 2 m/s 713 mmHg 66%
14:00 +4°C° 0 mm 2 m/s 712 mmHg 67%
15:00 +3°C° 0 mm 2 m/s 712 mmHg 65%
16:00 +3°C° 0 mm 2 m/s 712 mmHg 62%
17:00 +2°C° 0 mm 2 m/s 712 mmHg 60%
18:00 +2°C° 0 mm 2 m/s 712 mmHg 59%
19:00 +2°C° 0 mm 2 m/s 712 mmHg 59%
20:00 +2°C° 0 mm 2 m/s 712 mmHg 58%
21:00 +3°C° 0 mm 2 m/s 711 mmHg 57%
22:00 +3°C° 0 mm 2 m/s 711 mmHg 55%
23:00 +3°C° 0 mm 2 m/s 711 mmHg 54%

Après-demain, 27 Novembre, Vendredi

Heure Température Précipitation Vent Pression Humidité
00:00 +4°C° 0 mm 2 m/s 711 mmHg 54%
01:00 +4°C° 0 mm 2 m/s 711 mmHg 53%
02:00 +4°C° 0 mm 2 m/s 711 mmHg 53%
03:00 +4°C° 0 mm 2 m/s 710 mmHg 53%
04:00 +4°C° 0 mm 2 m/s 710 mmHg 53%
05:00 +4°C° 0 mm 2 m/s 710 mmHg 53%
06:00 +4°C° 0 mm 2 m/s 710 mmHg 54%
07:00 +4°C° 0 mm 3 m/s 710 mmHg 55%
08:00 +4°C° 0 mm 3 m/s 709 mmHg 56%
09:00 +5°C° 0 mm 3 m/s 709 mmHg 60%
10:00 +5°C° 0 mm 3 m/s 709 mmHg 64%
11:00 +7°C° 0 mm 3 m/s 709 mmHg 69%
12:00 +7°C° 0 mm 2 m/s 709 mmHg 70%
13:00 +7°C° 0 mm 2 m/s 709 mmHg 72%
14:00 +8°C° 0 mm 1 m/s 708 mmHg 74%
15:00 +8°C° 0 mm 1 m/s 708 mmHg 71%
16:00 +8°C° 0 mm 1 m/s 708 mmHg 68%
17:00 +7°C° 0 mm 1 m/s 709 mmHg 65%
18:00 +6°C° 0 mm 2 m/s 709 mmHg 66%
19:00 +5°C° 0 mm 2 m/s 709 mmHg 67%
20:00 +5°C° 0 mm 2 m/s 709 mmHg 69%
21:00 +4°C° 0.3 mm 3 m/s 709 mmHg 70%
22:00 +4°C° 0.3 mm 3 m/s 709 mmHg 72%
23:00 +5°C° 0.3 mm 3 m/s 709 mmHg 74%

28 Novembre, Samedi

Heure Température Précipitation Vent Pression Humidité
00:00 +4°C° 0 mm 3 m/s 709 mmHg 74%
01:00 +3°C° 0 mm 3 m/s 709 mmHg 75%
02:00 +3°C° 0 mm 3 m/s 710 mmHg 75%
03:00 +1°C° 0.9 mm 4 m/s 710 mmHg 83%
04:00 -1°C° 0.9 mm 6 m/s 711 mmHg 90%
05:00 -1°C° 0.9 mm 7 m/s 712 mmHg 97%
06:00 -2°C° 3.9 mm 8 m/s 713 mmHg 97%
07:00 -4°C° 3.9 mm 9 m/s 715 mmHg 98%
08:00 -4°C° 3.9 mm 9 m/s 716 mmHg 98%
09:00 -4°C° 1.4 mm 9 m/s 717 mmHg 97%
10:00 -4°C° 1.4 mm 10 m/s 718 mmHg 97%
11:00 -4°C° 1.4 mm 10 m/s 718 mmHg 96%
12:00 -4°C° 0.5 mm 9 m/s 719 mmHg 96%
13:00 -4°C° 0.5 mm 9 m/s 719 mmHg 96%
14:00 -4°C° 0.5 mm 9 m/s 719 mmHg 96%
15:00 -4°C° 0.4 mm 8 m/s 720 mmHg 96%
16:00 -3°C° 0.4 mm 6 m/s 720 mmHg 97%
17:00 -4°C° 0.4 mm 5 m/s 721 mmHg 97%
18:00 -4°C° 0.2 mm 5 m/s 721 mmHg 97%
19:00 -3°C° 0.2 mm 4 m/s 722 mmHg 97%
20:00 -2°C° 0.2 mm 3 m/s 722 mmHg 97%
21:00 -2°C° 0 mm 3 m/s 722 mmHg 96%
22:00 -3°C° 0 mm 2 m/s 722 mmHg 95%
23:00 -1°C° 0 mm 1 m/s 722 mmHg 94%

29 Novembre, Dimanche

Heure Température Précipitation Vent Pression Humidité
00:00 -2°C° 0 mm 1 m/s 722 mmHg 92%
01:00 -2°C° 0 mm 1 m/s 722 mmHg 91%
02:00 -3°C° 0 mm 1 m/s 722 mmHg 89%
03:00 -4°C° 0 mm 1 m/s 722 mmHg 88%
04:00 -6°C° 0 mm 1 m/s 722 mmHg 86%
05:00 -8°C° 0 mm 2 m/s 722 mmHg 84%
06:00 -8°C° 0 mm 2 m/s 722 mmHg 81%
07:00 -8°C° 0 mm 2 m/s 722 mmHg 78%
08:00 -9°C° 0 mm 3 m/s 722 mmHg 75%
09:00 -8°C° 0 mm 3 m/s 722 mmHg 78%
10:00 -7°C° 0 mm 3 m/s 721 mmHg 80%
11:00 -5°C° 0 mm 3 m/s 721 mmHg 83%
12:00 -5°C° 0 mm 3 m/s 721 mmHg 84%
13:00 -5°C° 0 mm 3 m/s 721 mmHg 85%
14:00 -4°C° 0 mm 3 m/s 720 mmHg 86%
15:00 -7°C° 0 mm 4 m/s 720 mmHg 86%
16:00 -8°C° 0 mm 4 m/s 720 mmHg 87%
17:00 -9°C° 0 mm 4 m/s 719 mmHg 88%
18:00 -9°C° 0 mm 4 m/s 719 mmHg 87%
19:00 -9°C° 0 mm 4 m/s 719 mmHg 87%
20:00 -10°C° 0 mm 5 m/s 719 mmHg 87%
21:00 -10°C° 0 mm 4 m/s 719 mmHg 86%
22:00 -10°C° 0 mm 4 m/s 719 mmHg 86%
23:00 -10°C° 0 mm 4 m/s 719 mmHg 85%

30 Novembre, Lundi

Heure Température Précipitation Vent Pression Humidité
00:00 -10°C° 0 mm 4 m/s 718 mmHg 84%
01:00 -10°C° 0 mm 4 m/s 718 mmHg 84%
02:00 -10°C° 0 mm 4 m/s 718 mmHg 84%
03:00 -11°C° 0 mm 5 m/s 718 mmHg 84%
04:00 -11°C° 0 mm 5 m/s 718 mmHg 85%
05:00 -11°C° 0 mm 5 m/s 717 mmHg 85%
06:00 -11°C° 0 mm 5 m/s 717 mmHg 85%
07:00 -11°C° 0 mm 5 m/s 717 mmHg 85%
08:00 -11°C° 0 mm 5 m/s 717 mmHg 85%
09:00 -10°C° 0 mm 5 m/s 717 mmHg 83%
10:00 -8°C° 0 mm 5 m/s 717 mmHg 81%
11:00 -8°C° 0 mm 6 m/s 717 mmHg 79%
12:00 -6°C° 0 mm 6 m/s 716 mmHg 78%
13:00 -6°C° 0 mm 6 m/s 716 mmHg 77%
14:00 -6°C° 0 mm 6 m/s 715 mmHg 77%
15:00 -8°C° 0 mm 6 m/s 715 mmHg 78%
16:00 -9°C° 0 mm 6 m/s 715 mmHg 79%
17:00 -10°C° 0 mm 6 m/s 715 mmHg 80%
18:00 -10°C° 0 mm 6 m/s 714 mmHg 79%
19:00 -10°C° 0 mm 6 m/s 714 mmHg 79%
20:00 -10°C° 0 mm 6 m/s 714 mmHg 79%
21:00 -11°C° 0 mm 6 m/s 713 mmHg 78%
22:00 -11°C° 0 mm 6 m/s 713 mmHg 77%
23:00 -11°C° 0 mm 5 m/s 712 mmHg 75%
Voir plus

Nous avons besoin de votre consentement

Meteoprog et ses fournisseurs de services peuvent stocker et accéder à des données personnelles telles que des cookies, des identifiants d'appareils ou d'autres technologies similaires sur votre appareil et traiter ces données pour personnaliser le contenu et les publicités, ainsi que pour fournir des fonctionnalités de médias sociaux et analyser le trafic.

  • Stocker et/ou accéder à des informations sur votre appareil

    Des cookies, des identifiants d'appareils ou d'autres informations peuvent être stockés ou accessibles sur votre appareil aux fins indiquées ci-dessus.

  • Annonces et contenus personnalisés, mesure des annonces et des contenus, connaissance de l'audience et développement de produits

    Les annonces et le contenu peuvent être personnalisés en fonction d'un profil. D'autres données peuvent être ajoutées pour mieux personnaliser les annonces et le contenu. Les performances des publicités et du contenu peuvent être mesurées. Il est possible d'obtenir des informations sur le public qui a vu les publicités et le contenu. Ces données peuvent être utilisées pour développer ou améliorer l'expérience de l'utilisateur, les systèmes et les logiciels.

En cliquant sur "J'accepte", vous autorisez l'utilisation de cookies, des identifiants d'appareils, des balises web ou d'autres technologies similaires. Vos paramètres peuvent être modifiés dans le navigateur de votre appareil.

Dans certains cas, des intérêts légitimes peuvent être invoqués plutôt qu'un consentement. Vous pouvez en savoir plus à ce sujet dans notre Politique de confidentialité et de cookies.